OneWeb SL0150

operational
NORAD ID: 48047 Int'l Des: 2021-025 Owner: ONEWEBN Country: UK Constellation: oneweb
LEOCIRCULARPOLARONEWEB_TYPE

Über OneWeb SL0150

Beschreibung wird geladen...

Live-Position

3D-Globus wird geladen...

Nächste Überflüge

Höhenverlauf

Altitude vs Time

uPlot chart will show altitude changes over time

Zweizeiliger Elementsatz

1 48047U 21025F 25258.55886848 .00000175 00000-0 44470-3 0 9992
2 48047 87.9040 14.7577 0001962 98.9181 261.2170 13.13470275217493
Epoch: 15. Sept. 2025 • Age: 17 hours

Aktueller Status

Höhe 1215.3 km
Geschwindigkeit 7.25 km/s
Subsatellitenpunkt 43.35°N, 70.15°W
Startdatum 25. März 2021
Alter 4.4 years
Typ internet

Technische Details

Klassifizierung Payload
Masse 148.00 kg
Trockenmasse 140.00 kg
Gesamtmasse 148.00 kg
Länge 1.30 m
Durchmesser 1.00 m
Spannweite 5.00 m
Form Trapezoid+2 pan
Hersteller ONEWUS
Bus-Typ ARROW
Phasenstatus In Orbit
Besitzer/Staat ONEWEBN/UK

Große Konstellationen

Loading constellations...